Branson, MO

4:37 AM CST on December 15, 2017 (GMT -0600)
Branson

Weather History for KBBG - December, 2013

Change the Weather History Date:

Monday, December 30, 2013

  Actual Average (KHRO) Record (KHRO)
Temperature  
Mean Temperature 24 °F -  
Max Temperature 35 °F 44 °F 75 °F (1951)
Min Temperature 14 °F 25 °F -5 °F (1983)
Degree Days  
Heating Degree Days 40    
Moisture  
Dew Point 14 °F    
Average Humidity 61    
Maximum Humidity 86    
Minimum Humidity 41    
Precipitation  
Precipitation 0.00 in - - ()
Sea Level Pressure  
Sea Level Pressure 30.26 in    
Wind  
Wind Speed 4 mph (NW)    
Max Wind Speed 8 mph    
Max Gust Speed -    
Visibility 10 miles    
Events      
Averages and records for this station are not official NWS values.
T = Trace of Precipitation, MM = Missing Value Source: NWS Daily Summary

Daily Weather History Graph

Daily Weather History Graph

Search for Another Location

Airport or City:

Trip Planner

Search our weather history database for the weather conditions in past years. The results will help you decide how hot, cold, wet, or windy it might be!

Date:

Astronomy

Dec. 30, 2013 Rise Set
Actual Time 7:24 AM CST 5:06 PM CST
Civil Twilight 6:55 AM CST 5:35 PM CST
Nautical Twilight 6:23 AM CST 6:07 PM CST
Astronomical Twilight 5:52 AM CST 6:39 PM CST
Moon 5:16 AM CST (12/30) 3:39 PM CST (12/30)
Length of Visible Light 10h 39m
Length of Day
9h 42m
Waning Crescent, 4% of the Moon is Illuminated
Dec 30
Waning Crescent
Jan 1
New
Jan 7
First Quarter
Jan 15
Full
Jan 23
Last Quarter

Hourly Weather History & Observations

Time (CST) Temp. Windchill Dew Point Humidity Pressure Visibility Wind Dir Wind Speed Gust Speed Precip Events Conditions
12:15 AM 19.4 °F 14.3 °F - N/A% 30.23 in 10.0 mi NW 3.5 mph - N/A   Mostly Cloudy
12:35 AM 19.4 °F 12.8 °F - N/A% 30.23 in 10.0 mi NW 4.6 mph - N/A   Scattered Clouds
12:55 AM 19.4 °F 12.8 °F - N/A% 30.23 in 10.0 mi NW 4.6 mph - N/A   Mostly Cloudy
1:15 AM 19.4 °F 14.3 °F - N/A% 30.23 in 10.0 mi NW 3.5 mph - N/A   Overcast
1:35 AM 19.4 °F - - N/A% 30.23 in 10.0 mi Calm Calm - N/A   Scattered Clouds
1:55 AM 19.4 °F 14.3 °F - N/A% 30.24 in 10.0 mi NW 3.5 mph - N/A   Clear
2:15 AM 19.4 °F 14.3 °F - N/A% 30.25 in 10.0 mi NW 3.5 mph - N/A   Partly Cloudy
2:35 AM 19.4 °F 14.3 °F - N/A% 30.25 in 10.0 mi NNW 3.5 mph - N/A   Partly Cloudy
2:55 AM 19.4 °F 12.8 °F - N/A% 30.25 in 10.0 mi NNW 4.6 mph - N/A   Clear
3:15 AM 17.6 °F 10.7 °F - N/A% 30.25 in 10.0 mi North 4.6 mph - N/A   Partly Cloudy
3:35 AM 17.6 °F - - N/A% 30.24 in 10.0 mi Calm Calm - N/A   Partly Cloudy
3:55 AM 17.6 °F 12.3 °F - N/A% 30.23 in 10.0 mi NNE 3.5 mph - N/A   Clear
4:15 AM 17.6 °F 8.2 °F - N/A% 30.24 in 10.0 mi North 6.9 mph - N/A   Clear
4:35 AM 15.8 °F 6.1 °F - N/A% 30.24 in 10.0 mi North 6.9 mph - N/A   Clear
4:55 AM 15.8 °F 8.6 °F - N/A% 30.24 in 10.0 mi North 4.6 mph - N/A   Scattered Clouds
5:15 AM 15.8 °F 7.2 °F - N/A% 30.24 in 10.0 mi North 5.8 mph - N/A   Mostly Cloudy
5:35 AM 15.8 °F 8.6 °F - N/A% 30.24 in 10.0 mi NNE 4.6 mph - N/A   Scattered Clouds
5:55 AM 15.8 °F 10.2 °F - N/A% 30.23 in 10.0 mi North 3.5 mph - N/A   Clear
6:15 AM 15.8 °F 8.6 °F - N/A% 30.23 in 10.0 mi NNE 4.6 mph - N/A   Clear
6:35 AM 14.0 °F 8.2 °F - N/A% 30.24 in 10.0 mi North 3.5 mph - N/A   Clear
6:45 AM 14.0 °F 8.2 °F 10.4 °F 86% 30.24 in 10.0 mi NNE 3.5 mph - N/A   Partly Cloudy
7:45 AM 14.0 °F 6.5 °F 10.4 °F 86% 30.27 in 10.0 mi North 4.6 mph - N/A   Partly Cloudy
8:50 AM 15.8 °F 10.2 °F 8.6 °F 73% 30.28 in 10.0 mi ESE 3.5 mph - N/A   Scattered Clouds
9:45 AM 19.4 °F 14.3 °F 10.4 °F 68% 30.29 in 10.0 mi East 3.5 mph - N/A   Mostly Cloudy
10:45 AM 23.0 °F 17.0 °F 12.2 °F 63% 30.28 in 10.0 mi ESE 4.6 mph - N/A   Mostly Cloudy
11:51 AM 28.4 °F 22.2 °F 12.2 °F 51% 30.26 in 10.0 mi South 5.8 mph - N/A   Mostly Cloudy
12:48 PM 30.2 °F - 12.2 °F 47% 30.24 in 10.0 mi Calm Calm - N/A   Mostly Cloudy
1:45 PM 33.8 °F 29.6 °F 14.0 °F 44% 30.20 in 10.0 mi South 4.6 mph - N/A   Mostly Cloudy
2:55 PM 35.6 °F - 14.0 °F 41% 30.20 in 10.0 mi Calm Calm - N/A   Scattered Clouds
3:45 PM 35.6 °F - 15.8 °F 44% 30.21 in 10.0 mi Calm Calm - N/A   Partly Cloudy
4:48 PM 33.8 °F - 15.8 °F 48% 30.22 in 10.0 mi Calm Calm - N/A   Partly Cloudy
5:47 PM 28.4 °F 23.3 °F 17.6 °F 64% 30.23 in 10.0 mi South 4.6 mph - N/A   Clear
6:55 PM 28.4 °F 23.3 °F 19.4 °F 69% 30.26 in 10.0 mi SW 4.6 mph - N/A   Clear
7:51 PM 30.2 °F - 21.2 °F 69% 30.29 in 10.0 mi Calm Calm - N/A   Clear
8:46 PM 30.2 °F 25.4 °F 19.4 °F 64% 30.28 in 10.0 mi SSW 4.6 mph - N/A   Clear
9:15 PM 28.4 °F 21.2 °F - N/A% 30.28 in 10.0 mi SW 6.9 mph - N/A   Clear
9:35 PM 28.4 °F 20.4 °F - N/A% 30.29 in 10.0 mi SW 8.1 mph - N/A   Clear
9:55 PM 28.4 °F 20.4 °F - N/A% 30.29 in 10.0 mi WSW 8.1 mph - N/A   Clear
10:15 PM 28.4 °F 22.2 °F - N/A% 30.30 in 10.0 mi WSW 5.8 mph - N/A   Clear
10:35 PM 28.4 °F 22.2 °F - N/A% 30.30 in 10.0 mi WSW 5.8 mph - N/A   Clear
10:55 PM 28.4 °F 23.3 °F - N/A% 30.31 in 10.0 mi West 4.6 mph - N/A   Clear
11:15 PM 28.4 °F 20.4 °F - N/A% 30.31 in 10.0 mi West 8.1 mph - N/A   Partly Cloudy
11:35 PM 28.4 °F 20.4 °F - N/A% 30.32 in 10.0 mi WSW 8.1 mph - N/A   Partly Cloudy
11:55 PM 26.6 °F 18.2 °F - N/A% 30.32 in 10.0 mi WSW 8.1 mph - N/A   Clear